User: anonymous   Login
Location: Caltech
(34.1382°N, 118.1253°W)
Time: 10:23:45
(UTC-07:00)
Language:

Spot 4 Rocket - Orbit

View from above orbital plane
View from above orbital plane
View from above satellite
View from above satellite

Ground track
Ground track

The orbit data is extracted from the following two-line orbital elements,

1 25261U 98017B   16124.51216550  .00000145  00000-0  68220-4 0  9992
2 25261  98.4978  72.0903 0002474 206.5393 279.2461 14.33469449946321
Epoch (UTC): 03 May 2016 12:17:31
Eccentricity: 0.0002474
inclination: 98.4978°
perigee height: 778 km
apogee height: 782 km
right ascension of ascending node: 72.0903°
argument of perigee: 206.5393°
revolutions per day: 14.33469449
mean anomaly at epoch: 279.2461°
orbit number at epoch: 94632

The dashed part of the orbit path shows where the satellite is in the earth's shadow,  

DLR